Tracking 18942 objects as of 17-Jan-2018
HD Live streaming from Space Station
objects crossing your sky now

COSMOS 2012

Track COSMOS 2012 now!
10-day predictions
COSMOS 2012 is classified as:


NORAD ID: 19906
Int'l Code: 1989-025E
Perigee: 1,463.0 km
Apogee: 1,478.6 km
Inclination: 74.0 °
Period: 115.2 minutes
Semi major axis: 7841 km
RCS: 0.6793 m2 (medium)
Launch date: March 24, 1989
Source: Commonwealth of Independent States (former USSR) (CIS)
Launch site: PLESETSK MISSILE AND SPACE COMPLEX (PKMTR)
aabbcc
Your satellite tracking list
Your tracking list is empty




NASA's NSSDC Master Catalog

Two Line Element Set (TLE):
1 19906U 89025E   18016.59688821 -.00000014 +00000-0 +13205-4 0  9993
2 19906 074.0092 068.2596 0010006 161.6383 352.5914 12.50198730315138
Source of the keplerian elements: AFSPC